Location: Unspecified
(0.0000°N, 0.0000°E)
Time: 16:47:56
(UTC+00:00)

Altair - All Passes

Search period start: 26 May 2022 00:00
Search period end: 05 June 2022 00:00
Orbit: 1501 x 1683 km, 47.2° (Epoch: 25 May)

Date Brightness Start Highest point End Pass type
(mag) Time Alt. Az. Time Alt. Az. Time Alt. Az.
26 May - 01:45:57 10° NW 01:55:38 64° SW 02:05:00 10° SSE night (unlit)
26 May - 04:00:30 10° SW 04:00:47 10° SW 04:01:04 10° SW visible
26 May - 12:30:50 10° SSW 12:39:59 57° SE 12:49:27 10° NE daylight
26 May - 14:36:36 10° WSW 14:44:38 31° NW 14:52:58 10° N daylight
26 May - 23:18:01 10° N 23:25:39 25° NE 23:33:04 10° E visible
27 May - 01:20:38 10° NW 01:30:28 71° SW 01:39:56 10° SSE night (unlit)
27 May - 03:32:08 10° WSW 03:35:29 12° SW 03:38:48 10° SSW visible
27 May - 12:05:49 10° SSW 12:14:49 51° SE 12:24:05 10° ENE daylight
27 May - 14:11:05 10° WSW 14:19:24 34° NW 14:28:02 10° NNE daylight
27 May - 22:53:15 10° N 23:00:22 22° NE 23:07:18 10° E visible
28 May - 00:55:21 10° NW 01:05:16 79° SW 01:14:50 10° SE night (unlit)
28 May - 03:05:30 10° WSW 03:10:11 14° SW 03:14:49 10° SSW night (unlit)
28 May - 11:40:51 10° SSW 11:49:38 45° SE 11:58:40 10° ENE daylight
28 May - 13:45:37 10° WSW 13:54:11 39° NW 14:03:04 10° NNE daylight
28 May - 22:28:33 10° N 22:35:05 19° NE 22:41:28 10° E visible
29 May - 00:30:06 10° NW 00:40:05 88° SW 00:49:43 10° SE visible
29 May - 02:39:16 10° W 02:44:54 17° SW 02:50:29 10° S night (unlit)
29 May - 11:15:55 10° SSW 11:24:27 40° SE 11:33:12 10° ENE daylight
29 May - 13:20:13 10° WSW 13:28:58 43° NW 13:38:04 10° NNE daylight
29 May - 22:03:58 10° N 22:09:46 17° NE 22:15:28 10° E visible
30 May - 00:04:53 10° NW 00:14:54 84° NE 00:24:33 10° SE visible
30 May - 02:13:13 10° W 02:19:39 19° SW 02:25:59 10° S night (unlit)
30 May - 10:51:01 10° SSW 10:59:16 35° SE 11:07:41 10° ENE daylight
30 May - 12:54:51 10° WSW 13:03:46 49° NW 13:13:03 10° NNE daylight
30 May - 21:39:33 10° NNE 21:44:27 14° NE 21:49:16 10° ENE visible
30 May - 23:39:42 10° NW 23:49:42 76° NE 23:59:21 10° SE visible
31 May - 01:47:19 10° W 01:54:24 22° SW 02:01:22 10° S night (unlit)
31 May - 10:26:10 10° S 10:34:04 31° SE 10:42:08 10° ENE daylight
31 May - 12:29:31 10° SW 12:38:35 54° NW 12:48:00 10° NNE daylight
31 May - 21:15:25 10° NNE 21:19:06 12° NE 21:22:46 10° ENE visible
31 May - 23:14:32 10° NNW 23:24:31 69° NE 23:34:07 10° SE visible
01 Jun - 01:21:31 10° W 01:29:10 25° SW 01:36:39 10° S night (unlit)
01 Jun - 10:01:21 10° S 10:08:52 27° SE 10:16:31 10° ENE daylight
01 Jun - 12:04:14 10° SW 12:13:24 61° NW 12:22:55 10° NNE daylight
01 Jun - 20:52:08 10° NNE 20:53:44 10° NE 20:55:20 10° NE visible
01 Jun - 22:49:25 10° NNW 22:59:18 61° NE 23:08:51 10° SE visible
02 Jun - 00:55:49 10° WNW 01:03:56 29° SW 01:11:52 10° S night (unlit)
02 Jun - 09:36:37 10° S 09:43:39 24° SE 09:50:48 10° E daylight
02 Jun - 11:38:59 10° SW 11:48:12 68° NW 11:57:48 10° NNE daylight
02 Jun - 13:50:30 10° WNW 13:53:31 12° NW 13:56:36 10° NNW daylight
02 Jun - 22:24:19 10° NNW 22:34:06 55° NE 22:43:33 10° SE visible
03 Jun - 00:30:10 10° WNW 00:38:43 33° SW 00:47:02 10° S night (unlit)
03 Jun - 09:11:55 10° S 09:18:27 21° SE 09:25:01 10° E daylight
03 Jun - 11:13:47 10° SW 11:23:03 76° NW 11:32:39 10° NE daylight
03 Jun - 13:23:54 10° WNW 13:28:12 14° NW 13:32:36 10° NNW daylight
03 Jun - 21:59:15 10° NNW 22:08:53 49° NE 22:18:13 10° ESE visible
04 Jun - 00:04:36 10° WNW 00:13:30 37° SW 00:22:10 10° SSE night (unlit)
04 Jun - 08:47:20 10° S 08:53:12 18° SE 08:59:07 10° E daylight
04 Jun - 10:48:36 10° SW 10:57:53 85° NW 11:07:29 10° NE daylight
04 Jun - 12:57:41 10° W 13:02:54 16° NW 13:08:14 10° N daylight
04 Jun - 21:34:13 10° NNW 21:43:39 44° NE 21:52:50 10° ESE visible
04 Jun - 23:39:05 10° WNW 23:48:17 42° SW 23:57:15 10° SSE visible
